Weather reports worldwide

Advertisment
Bluefield, wv, United States of America (2072067): temperature & dewpoint: 16.09.2018 21:00:00 - 22.09.2018 21:00:00 (EDT)Bluefield, wv, United States of America (2072067): wind speed & gusts: 16.09.2018 21:00:00 - 22.09.2018 21:00:00 (EDT)Bluefield, wv, United States of America (2072067): wind direction: 16.09.2018 21:00:00 - 22.09.2018 21:00:00 (EDT)Bluefield, wv, United States of America (2072067): reduced air pressure: 16.09.2018 21:00:00 - 22.09.2018 21:00:00 (EDT)Bluefield, wv, United States of America (2072067): visibility: 16.09.2018 21:00:00 - 22.09.2018 21:00:00 (EDT)Bluefield, wv, United States of America (2072067): precipitation: 16.09.2018 21:00:00 - 22.09.2018 21:00:00 (EDT)
Date & Time tt [°C] td [°C] ff [km/h] ff [kn] fx [km/h] fx [kn] dd ppp [hPa] vv [km] rr [mm]
22.09.2018 21:00:00 18,3 18,3 0 0 - - N 1019,4 2,8 0,3
22.09.2018 20:00:00 18,3 18,3 11 6 - - N 1019,1 6 23,4
22.09.2018 19:00:00 18,9 18,9 13 7 - - WNW 1018,6 2,0 8,9
22.09.2018 18:00:00 21,1 20,0 5 3 - - E 1017,8 16 -
22.09.2018 17:00:00 21,7 20,0 8 4 - - NE 1018,0 10 -
22.09.2018 16:00:00 23,3 19,4 8 4 - - - 1018,2 16 -
22.09.2018 15:00:00 22,8 19,4 11 6 - - N 1018,8 16 0,0
22.09.2018 14:00:00 23,3 18,3 8 4 - - NW 1019,4 16 -
22.09.2018 13:00:00 23,3 18,3 11 6 - - NW 1019,8 16 -
22.09.2018 12:00:00 23,3 18,9 8 4 - - WNW 1020,1 16 -
22.09.2018 11:00:00 22,2 18,9 5 3 - - SW 1020,2 16 -
22.09.2018 10:00:00 20,6 18,9 5 3 - - W 1020,2 16 -
22.09.2018 09:00:00 19,4 18,3 9 5 - - W 1020,3 10 -
22.09.2018 08:00:00 18,9 17,8 9 5 - - W 1020,3 16 -
22.09.2018 07:00:00 18,9 17,2 8 4 - - W 1019,2 16 -
22.09.2018 06:00:00 18,3 17,2 9 5 - - WSW 1018,8 16 -
22.09.2018 05:00:00 18,9 17,2 9 5 - - W 1018,6 16 -
22.09.2018 04:00:00 19,4 17,2 9 5 - - WSW 1018,9 16 -
22.09.2018 03:00:00 19,4 16,7 8 4 - - WSW 1019,1 16 -
22.09.2018 02:00:00 19,4 16,7 5 3 - - SW 1019,4 16 -
22.09.2018 01:00:00 19,4 17,2 8 4 - - WSW 1019,4 16 -
22.09.2018 00:00:00 20,0 17,2 8 4 - - W 1019,3 16 -
21.09.2018 23:00:00 20,6 17,2 8 4 - - WSW 1019,7 16 -
21.09.2018 22:00:00 21,7 17,2 8 4 - - SW 1019,7 16 -
21.09.2018 21:00:00 21,7 17,8 8 4 - - SSW 1019,6 16 -
21.09.2018 20:00:00 22,2 17,8 8 4 - - W 1019,2 16 -
21.09.2018 19:00:00 23,9 18,3 0 0 - - N 1018,2 16 -
21.09.2018 18:00:00 25,6 17,8 9 5 - - W 1017,9 16 -
21.09.2018 17:00:00 26,1 17,2 11 6 - - W 1017,9 16 -
21.09.2018 16:00:00 26,1 16,7 9 5 - - W 1018,4 16 -
21.09.2018 15:00:00 26,7 17,2 15 8 - - WSW 1018,7 16 -
21.09.2018 14:00:00 26,1 17,2 15 8 - - SW 1019,8 16 -
21.09.2018 13:00:00 26,1 17,2 13 7 - - WSW 1020,5 16 -
21.09.2018 12:00:00 25,0 17,2 - - - - - 1021,4 16 -
21.09.2018 11:00:00 22,8 17,2 0 0 - - N 1021,9 - -
21.09.2018 10:00:00 21,1 17,2 5 3 - - - 1022,1 16 -
21.09.2018 09:00:00 21,1 17,2 5 3 - - WSW 1022,1 16 -
21.09.2018 08:00:00 20,0 16,7 8 4 - - SW 1021,9 16 -
21.09.2018 07:00:00 19,4 16,7 8 4 - - SW 1021,5 16 -
21.09.2018 06:00:00 19,4 17,2 8 4 - - S 1020,8 16 -
21.09.2018 05:00:00 20,0 17,2 11 6 - - - 1020,4 16 -
21.09.2018 04:00:00 20,6 17,8 5 3 - - - 1020,1 16 -
21.09.2018 03:00:00 20,6 17,8 9 5 - - - 1020,2 16 -
21.09.2018 02:00:00 21,1 18,3 15 8 - - S 1020,4 16 -
21.09.2018 01:00:00 21,1 18,9 9 5 - - SW 1020,4 16 -
21.09.2018 00:00:00 21,1 19,4 5 3 - - SSW 1020,4 16 -
20.09.2018 23:00:00 21,7 19,4 0 0 - - N 1020,6 16 -
20.09.2018 22:00:00 21,7 18,9 9 5 - - SE 1021,0 16 -
20.09.2018 21:00:00 21,7 18,3 5 3 - - SSE 1020,6 16 -
20.09.2018 20:00:00 22,2 18,3 0 0 - - N 1020,6 16 -
20.09.2018 19:00:00 23,3 19,4 0 0 - - N 1020,3 16 -
20.09.2018 18:00:00 25,6 18,3 0 0 - - N 1019,9 16 -
20.09.2018 17:00:00 27,8 16,1 8 4 - - N 1019,6 16 -
20.09.2018 16:00:00 27,8 16,1 8 4 - - NW 1019,6 16 -
20.09.2018 15:00:00 26,1 16,7 5 3 - - W 1020,2 16 -
20.09.2018 14:00:00 26,1 17,2 5 3 - - - 1020,8 16 -
20.09.2018 13:00:00 25,6 17,8 5 3 - - - 1021,3 16 -
20.09.2018 12:00:00 25,0 17,2 9 5 - - W 1021,6 16 -
20.09.2018 11:00:00 23,3 18,9 0 0 - - N 1021,8 16 -
20.09.2018 10:00:00 20,6 18,9 0 0 - - N 1021,8 16 -
20.09.2018 09:00:00 17,8 17,8 0 0 - - N 1021,5 16 -
20.09.2018 08:00:00 15,6 15,6 0 0 - - N 1021,0 0,8 -
20.09.2018 07:00:00 16,1 16,1 0 0 - - N 1020,1 6 -
20.09.2018 06:00:00 17,2 16,7 0 0 - - N 1019,2 11 -
20.09.2018 05:00:00 17,2 17,2 0 0 - - N 1018,3 16 -
20.09.2018 04:00:00 17,2 16,7 0 0 - - N 1018,0 16 -
20.09.2018 03:00:00 17,8 17,2 0 0 - - N 1018,0 16 -
20.09.2018 02:00:00 19,4 17,2 0 0 - - N 1018,0 16 -
20.09.2018 01:00:00 19,4 17,2 0 0 - - N 1018,4 16 -
20.09.2018 00:00:00 20,0 17,8 0 0 - - N 1018,5 16 -
19.09.2018 23:00:00 20,0 17,8 0 0 - - N 1018,6 16 -
19.09.2018 22:00:00 19,4 17,8 0 0 - - N 1018,3 16 -
19.09.2018 21:00:00 21,1 17,8 0 0 - - N 1017,7 16 -
19.09.2018 20:00:00 22,2 18,3 5 3 - - WNW 1017,4 16 -
19.09.2018 19:00:00 23,9 18,3 8 4 - - WNW 1016,8 16 -
19.09.2018 18:00:00 25,0 17,8 5 3 - - N 1016,1 16 -
19.09.2018 17:00:00 25,6 17,2 9 5 - - - 1016,1 16 -
19.09.2018 16:00:00 26,1 17,2 16 9 - - WNW 1016,0 16 -
19.09.2018 15:00:00 25,0 17,2 0 0 - - N 1016,3 16 -
19.09.2018 14:00:00 25,6 17,2 13 7 - - WNW 1016,7 16 -
19.09.2018 13:00:00 25,6 18,3 9 5 - - - 1017,0 16 -
19.09.2018 12:00:00 23,9 18,3 16 9 - - W 1017,3 16 -
19.09.2018 11:00:00 21,7 18,3 11 6 - - W 1017,7 16 -
19.09.2018 10:00:00 21,1 17,8 8 4 - - WSW 1017,4 16 -
19.09.2018 09:00:00 19,4 17,8 11 6 - - WSW 1017,3 16 -
19.09.2018 08:00:00 17,2 17,2 11 6 - - WSW 1017,1 16 -
19.09.2018 07:00:00 16,7 16,7 11 6 - - WSW 1016,0 16 -
19.09.2018 06:00:00 16,7 16,7 8 4 - - WSW 1015,4 16 -
19.09.2018 05:00:00 17,2 16,7 9 5 - - WSW 1014,9 16 -
19.09.2018 04:00:00 16,7 16,7 8 4 - - WSW 1014,9 16 -
19.09.2018 03:00:00 16,7 16,7 8 4 - - WSW 1015,1 16 -
19.09.2018 02:00:00 16,7 16,7 5 3 - - WSW 1015,2 16 -
19.09.2018 01:00:00 17,8 16,1 5 3 - - WSW 1015,3 16 -
19.09.2018 00:00:00 17,2 16,7 0 0 - - N 1015,6 16 -
18.09.2018 23:00:00 17,8 16,1 5 3 - - WSW 1015,5 16 -
18.09.2018 22:00:00 18,3 16,1 0 0 - - N 1015,6 16 -
18.09.2018 21:00:00 17,8 16,7 0 0 - - N 1015,2 16 -
18.09.2018 20:00:00 19,4 16,1 0 0 - - N 1014,7 16 -
18.09.2018 19:00:00 21,7 16,1 8 4 - - WNW 1014,2 16 -
18.09.2018 18:00:00 22,8 15,0 16 9 - - NNW 1013,9 16 -
18.09.2018 17:00:00 23,9 15,0 16 9 - - WNW 1013,7 16 -
18.09.2018 16:00:00 23,9 16,1 15 8 - - WNW 1013,4 16 -
18.09.2018 15:00:00 23,3 16,7 22 12 - - WNW 1013,8 16 -
18.09.2018 14:00:00 22,8 17,2 13 7 - - WNW 1014,2 16 -
18.09.2018 13:00:00 22,2 17,8 11 6 - - - 1014,4 16 -
18.09.2018 12:00:00 21,1 18,3 15 8 - - W 1015,1 16 -
18.09.2018 11:00:00 19,4 18,3 11 6 - - NW 1014,9 16 -
18.09.2018 10:00:00 18,9 18,3 8 4 - - WNW 1014,8 16 -
18.09.2018 09:00:00 18,3 18,3 13 7 - - WNW 1014,6 16 0,3
18.09.2018 08:00:00 18,3 18,3 15 8 - - WNW 1014,3 16 0,0
18.09.2018 07:00:00 18,3 18,3 16 9 - - WNW 1013,7 16 0,0
18.09.2018 06:00:00 17,8 17,8 13 7 - - W 1013,3 16 0,0
18.09.2018 05:00:00 17,8 17,8 15 8 - - WNW 1013,1 16 0,0
18.09.2018 04:00:00 17,8 17,8 16 9 - - WNW 1012,6 16 0,0
18.09.2018 03:00:00 17,8 17,8 18 10 - - WNW 1012,6 16 0,5
18.09.2018 02:00:00 17,8 17,8 15 8 - - WNW 1012,6 15 0,3
18.09.2018 01:00:00 18,3 18,3 16 9 - - W 1012,3 11 0,3
18.09.2018 00:00:00 18,3 18,3 16 9 - - W 1012,4 11 0,3
17.09.2018 23:00:00 18,3 18,3 18 10 - - W 1012,3 16 1,0
17.09.2018 22:00:00 18,9 18,9 15 8 - - WSW 1012,2 13 0,3
17.09.2018 21:00:00 19,4 19,4 15 8 - - SW 1011,5 10 0,3
17.09.2018 20:00:00 19,4 19,4 9 5 - - SSW 1011,0 16 0,5
17.09.2018 19:00:00 20,6 19,4 9 5 - - SW 1010,9 16 0,0
17.09.2018 18:00:00 21,7 18,9 18 10 - - WSW 1010,4 16 0,0
17.09.2018 17:00:00 22,8 20,0 9 5 - - S 1010,3 16 -
17.09.2018 16:00:00 - - - - - - - - - -
17.09.2018 15:00:00 24,4 20,0 13 7 - - S 1010,6 16 -
17.09.2018 14:00:00 22,2 20,0 11 6 - - SW 1011,6 16 -
17.09.2018 13:00:00 21,1 20,0 5 3 - - - 1012,0 16 0,0
17.09.2018 12:00:00 20,6 19,4 11 6 - - - 1011,9 16 0,8
17.09.2018 11:00:00 20,0 19,4 13 7 - - WSW 1012,0 6 0,5
17.09.2018 10:00:00 20,0 19,4 15 8 - - S 1011,4 16 -
17.09.2018 09:00:00 20,0 19,4 - - - - - 1011,5 16 0,3
17.09.2018 08:00:00 20,0 18,9 9 5 - - - 1011,3 13 0,5
17.09.2018 07:00:00 20,0 19,4 9 5 - - - 1010,9 16 0,0
17.09.2018 06:00:00 19,4 19,4 8 4 - - - 1010,7 16 0,0
17.09.2018 05:00:00 19,4 19,4 11 6 - - - 1010,3 10 1,3
17.09.2018 04:00:00 19,4 19,4 11 6 - - - 1010,4 16 2,8
17.09.2018 03:00:00 18,9 18,9 13 7 - - E 1011,0 8 2,5
17.09.2018 02:00:00 19,4 18,9 22 12 48 26 E 1011,4 11 0,5
17.09.2018 01:00:00 18,9 18,3 26 14 48 26 E 1011,7 15 0,5
17.09.2018 00:00:00 18,9 18,9 18 10 48 26 E 1012,7 16 0,0
16.09.2018 23:00:00 18,3 18,3 13 7 - - E - 16 0,3
16.09.2018 22:00:00 - - - - - - - - - -
16.09.2018 21:00:00 - - - - - - - - - -

tt = temperature
td = dewpoint
ff = wind speed
fx = gusts
dd = wind direction
ppp = reduced air pressure
vv = visibility
rr = precipitation

Next stations